SCP
-0 -0 -0 -0 -0 -0 -0 -0 -0 -0 0 0 0 0 0 0 0 0 0 0 0 -0 -0 0 0 0 0 0 0 0 0 0 0 0 0 0 0 0 0 0 0 -0 0 0 0
0 0 -0 -0 -0 -0 -0 -0 -0 -0 -0 -0 0 0 0 0 0 0 0 -0 -0 -0 0 0 0 0 0 0 0 0 0 0 0 0 0 0 0 0 0 -0 -0 -0 -0 0 0
0 0 0 0 0 -0 -0 0 0 0 0 0 -0 0 0 0 0 0 0 -0 -0 0 -0 0 0 0 0 0 0 0 0 0 0 0 0 0 0 0 -0 -0 -0 0 0 0 0
0 0 0 0 0 0 0 0 0 0 0 0 0 0 0 0 0 0 0 0 0 -0 -0 0 0 0 0 0 0 0 0 0 0 0 0 0 0 -0 0 -0 0 0 0 0 0
-0 -0 -0 -0 0 0 0 0 0 0 0 0 0 0 0 0 0 0 0 0 0 0 0 -0 0 0 0 0 0 0 0 0 0 0 0 0 -0 -0 -0 -0 0 0 0 0 0
-0 -0 -0 -0 -0 -0 0 0 0 0 0 0 0 -0 0 0 0 0 0 0 0 0 0 0 0 0 0 0 0 0 0 0 0 0 0 0 -0 0 0 0 0 0 0 0 0
-0 -0 -0 -0 -0 -0 0 0 0 -0 -0 -0 0 0 0 0 0 0 0 0 0 0 0 0 0 0 0 0 0 0 0 0 0 0 0 0 0 0 0 0 0 0 0 0 0
-0 -0 -0 -0 -0 -0 -0 0 0 -0 -0 -0 -0 0 0 0 0 0 0 0 0 0 0 0 0 0 0 0 0 0 0 0 0 0 0 0 0 0 0 0 0 0 0 0 0
-0 -0 -0 -0 -0 -0 -0 0 0 -0 -0 -0 0 0 0 0 0 0 0 0 0 0 0 0 0 0 0 0 0 0 0 0 0 0 0 0 0 0 0 0 0 0 0 0 0
-0 -0 -0 -0 -0 -0 -0 0 0 0 0 0 0 0 0 0 0 0 0 0 0 0 0 0 0 0 0 0 0 0 0 0 0 0 0 0 -0 0 0 0 0 0 0 0 0
0 -0 -0 -0 -0 -0 0 0 0 0 0 0 0 0 0 0 0 0 0 0 0 0 0 0 0 0 0 0 0 0 0 0 0 0 0 0 0 -0 0 0 0 0 0 0 0
0 0 0 0 0 0 0 0 0 0 0 0 0 0 0 0 0 0 0 0 0 0 0 0 0 0 0 0 0 0 0 0 0 0 0 0 0 0 0 0 0 0 0 0 0
0 0 0 0 0 0 -0 0 0 0 0 0 0 0 0 0 0 0 0 0 0 0 0 0 0 0 0 0 0 0 0 0 0 0 0 0 0 0 0 0 0 0 0 0 0
0 0 0 0 0 0 0 0 0 0 0 0 0 0 0 0 0 0 0 0 0 0 0 0 0 0 0 0 0 0 0 0 0 0 0 0 0 0 0 0 0 0 0 0 0
0 0 0 0 0 0 0 0 0 0 0 0 0 0 0 0 0 0 0 0 0 0 0 0 0 0 0 0 0 0 0 0 0 0 0 0 0 0 0 0 0 0 0 0 0
0 0 0 0 0 0 0 0 0 0 0 0 0 0 0 0 0 0 0 0 0 0 0 0 0 0 0 0 0 0 0 0 0 0 0 0 0 0 0 0 0 0 0 0 0
0 0 0 0 0 0 0 0 0 0 0 0 0 0 0 0 0 0 0 0 0 0 0 0 0 0 0 0 0 0 0 0 0 0 0 0 0 0 0 0 0 0 0 0 0
0 0 0 0 0 0 0 0 0 0 0 0 0 0 0 0 0 0 0 0 0 0 0 0 0 0 0 0 0 0 0 0 0 0 0 0 0 0 0 0 0 0 0 0 0
0 0 0 0 0 0 0 0 0 0 0 0 0 0 0 0 0 0 0 0 0 0 0 0 0 0 0 0 0 0 0 0 0 0 0 0 0 0 0 0 0 0 0 0 0
0 0 0 0 0 0 0 0 0 0 0 0 0 0 0 0 0 0 0 0 0 0 0 0 0 0 0 0 0 0 0 0 0 0 0 0 0 0 0 0 0 0 0 0 0
0 0 0 0 0 0 0 0 0 0 0 0 0 0 0 0 0 0 0 0 0 0 0 0 0 0 0 0 0 0 0 0 0 0 0 0 0 0 0 0 0 0 0 0 0
0 0 0 0 0 0 0 0 0 0 0 0 0 0 0 0 0 0 0 0 0 0 0 0 0 0 0 0 0 0 0 0 0 0 0 0 0 0 0 0 0 0 0 0 0
0 0 0 0 0 0 0 0 0 0 0 0 0 0 0 0 0 0 0 0 0 0 0 0 0 0 0 0 0 0 0 0 0 0 0 0 0 0 0 0 0 0 0 0 0
0 0 0 0 0 0 0 0 0 0 0 0 0 0 0 0 0 0 0 0 0 0 0 0 0 0 0 0 0 0 0 0 0 0 0 0 0 0 0 0 0 0 0 0 0
0 0 0 0 0 0 0 0 0 0 0 0 0 0 0 0 0 0 0 0 0 0 0 0 0 0 0 0 0 0 0 0 0 0 0 0 0 0 0 0 0 0 0 0 0
0 0 0 0 0 0 0 0 0 0 0 0 0 0 0 0 0 0 0 0 0 0 0 0 0 0 0 0 0 0 0 0 0 0 0 0 0 0 0 0 0 0 0 0 0
0 0 0 0 0 0 0 0 0 0 0 0 0 0 0 0 0 0 0 0 0 0 0 0 0 0 0 0 0 0 0 0 0 0 0 0 0 0 0 0 0 0 0 0 0
Wind_Speed_500mb
19 18 17 20 21 18 14 22 25 18 21 15 25 24 13 23 28 14 10 13 11 13 14 7 20 26 22 10 9 8 8 5 12 13 7 2 3 4 5 5 4 5 6 5 3
17 16 18 20 22 21 17 21 24 22 23 16 25 7 21 15 17 28 21 9 7 13 12 18 28 27 13 8 7 8 7 12 3 4 6 4 4 3 4 3 7 8 10 7 5
16 17 19 21 22 23 23 21 23 24 21 18 13 16 13 9 6 20 19 5 2 8 12 17 18 15 11 9 9 6 6 9 5 4 3 3 1 2 6 9 20 20 15 11 7
16 19 19 20 22 25 26 25 23 23 21 20 16 13 19 9 3 20 19 5 5 1 6 11 8 7 9 7 6 11 8 6 8 3 4 4 3 7 23 8 12 16 14 13 7
15 17 19 21 21 22 24 23 23 22 19 16 19 12 6 8 11 16 19 3 8 5 6 8 6 8 9 8 6 8 8 11 11 5 3 6 12 13 27 29 19 17 18 16 14
13 15 17 19 20 21 22 21 20 20 17 12 12 19 7 7 12 14 17 11 6 7 7 9 8 16 18 9 8 6 12 11 4 7 3 5 7 8 8 37 32 25 22 21 20
17 19 19 20 21 22 22 22 19 16 15 12 9 10 10 6 10 10 14 15 15 14 16 22 17 5 13 9 12 13 8 4 4 8 1 10 12 19 24 29 37 32 27 25 22
21 21 21 21 22 23 23 23 20 15 15 10 8 5 5 5 7 8 7 14 19 18 21 19 21 19 10 24 11 8 9 1 1 16 1 5 17 5 13 29 42 39 35 31 26
25 25 25 24 22 23 23 22 16 11 9 8 5 2 4 2 7 10 4 6 11 10 13 12 5 12 10 8 7 12 4 2 6 6 6 5 15 7 8 27 41 48 46 41 34
25 26 26 26 25 22 22 20 12 9 10 6 3 3 3 7 11 11 4 5 4 4 1 2 8 7 8 8 7 6 4 6 9 7 6 8 32 24 37 32 52 57 55 53 46
26 26 26 27 27 22 19 11 7 5 6 6 5 3 5 9 4 12 3 2 4 2 6 10 11 4 4 2 5 9 4 3 5 3 8 6 17 45 28 45 57 69 73 71 63
26 26 28 27 25 20 17 5 8 3 5 5 4 3 5 9 1 16 7 1 5 4 9 9 6 4 3 3 7 8 3 6 8 3 4 10 32 43 19 21 46 56 61 75 74
29 30 28 28 22 18 17 14 9 8 2 3 3 2 2 4 5 13 9 6 12 9 10 8 4 3 4 6 4 5 2 1 6 14 1 15 16 13 4 12 20 28 34 40 60
28 29 29 28 11 21 12 17 13 10 9 7 2 2 3 2 5 12 9 6 10 8 6 9 2 3 5 6 2 2 3 2 5 11 7 10 11 17 7 17 11 21 21 24 36
26 28 27 25 21 16 15 16 13 5 7 1 3 3 5 3 1 7 12 6 9 8 5 4 3 2 3 4 1 4 2 4 4 5 6 1 4 17 8 12 12 17 18 23 32
26 27 27 24 18 18 20 17 8 12 12 7 5 5 2 8 6 5 5 10 12 8 10 6 3 4 3 7 6 8 5 8 7 5 4 2 7 13 8 8 7 3 18 21 30
26 28 27 26 20 19 16 11 10 8 6 9 3 6 5 5 7 10 6 3 7 9 2 5 3 1 4 6 2 4 7 6 10 6 9 2 2 23 11 10 6 4 5 18 27
33 29 31 28 24 17 13 10 6 4 11 1 4 3 5 2 2 2 4 4 5 9 7 10 11 9 2 3 9 7 8 9 11 5 9 1 13 13 14 6 19 28 19 13 22
45 40 38 32 22 13 4 6 15 14 9 14 2 6 9 5 3 2 9 10 13 14 15 8 6 5 9 8 4 6 5 2 11 6 6 8 15 23 13 20 29 43 26 32 30
52 46 49 40 33 16 6 12 10 8 11 4 13 8 9 7 4 6 5 9 11 6 6 11 3 4 3 2 4 3 5 8 6 2 9 9 9 13 6 3 1 11 40 40 34
52 17 26 26 25 15 8 16 12 18 17 12 13 8 11 13 12 8 9 8 8 9 6 9 7 2 5 9 11 2 4 7 3 7 9 4 11 15 13 8 14 17 23 30 34
50 8 26 36 14 5 10 17 15 13 20 11 4 11 17 14 11 5 16 11 21 24 16 11 10 8 15 2 1 3 7 12 8 10 3 1 16 7 12 15 21 31 26 25 26
21 26 35 53 14 7 5 10 18 13 14 15 15 14 7 16 2 14 11 7 31 18 15 15 3 3 12 7 8 7 10 7 7 5 13 8 13 7 5 15 21 33 27 30 38
19 6 14 47 25 14 13 13 16 30 13 19 11 11 7 11 11 10 10 6 24 16 11 17 5 14 15 11 11 7 10 11 10 7 8 19 36 26 42 33 33 48 57 60 57
32 14 20 10 15 17 20 22 29 18 15 28 7 16 18 13 9 11 9 6 6 13 10 10 13 7 5 5 7 10 11 17 22 25 18 35 24 34 45 37 28 47 59 60 70
18 17 12 6 9 41 38 38 48 31 23 16 19 30 23 32 20 24 17 11 13 8 14 2 6 7 8 1 11 12 18 23 36 27 32 45 57 56 84 75 65 53 53 58 65
45 61 52 39 16 16 31 44 41 35 35 47 40 19 27 52 41 19 27 22 18 24 22 14 12 7 12 2 3 19 21 41 19 15 31 33 56 48 47 30 37 46 56 66 73
Wind_Direction_500mb
52 50 44 27 19 20 12 15 10 12 0 332 292 259 337 12 26 14 358 1 3 16 14 87 142 148 145 116 110 120 69 156 179 160 179 106 91 50 79 180 196 194 186 190 139
35 33 24 16 16 11 6 356 356 5 3 5 19 246 265 304 4 23 12 4 29 15 54 101 125 135 105 91 47 78 105 195 146 129 140 121 164 188 154 192 234 204 192 190 162
25 19 15 8 6 5 0 0 355 357 357 3 2 13 327 266 358 4 354 318 346 20 93 120 128 117 83 78 33 51 126 169 162 151 136 127 186 249 169 221 216 212 190 189 205
10 10 5 2 2 360 358 356 356 353 351 359 357 354 34 28 83 354 352 291 217 58 134 134 140 88 76 87 71 89 108 115 150 152 145 180 244 236 212 218 188 195 194 205 214
1 0 354 353 356 355 354 353 351 350 342 356 3 1 12 41 21 2 3 347 209 184 203 197 149 105 97 93 77 83 144 118 116 114 223 264 244 250 243 219 206 196 208 217 231
344 345 343 342 345 344 346 349 349 353 345 339 18 29 15 72 3 11 25 51 142 161 176 173 156 114 100 72 66 84 107 116 78 33 289 308 276 328 267 209 206 208 215 222 232
337 336 336 336 335 335 340 340 344 346 340 335 332 341 25 69 26 26 43 68 85 90 116 120 110 114 112 90 98 105 76 23 32 349 352 326 268 233 235 196 202 212 217 224 231
336 334 333 330 332 331 335 335 332 317 330 334 348 39 72 57 48 32 61 83 90 89 95 103 100 99 63 116 52 63 61 53 335 356 336 27 268 219 212 200 211 219 224 229 231
338 335 331 331 330 328 331 330 329 321 322 337 328 143 121 9 28 34 78 108 107 95 96 95 93 87 97 90 44 9 184 223 305 58 302 175 269 263 222 217 229 228 230 235 235
334 334 334 331 326 327 327 328 314 307 308 274 318 108 72 326 357 8 19 140 153 156 107 106 79 76 36 62 218 215 208 229 250 341 345 264 270 260 247 235 239 238 237 237 236
333 333 333 333 333 334 331 323 299 279 11 64 42 81 341 339 28 357 328 53 123 83 33 20 69 82 111 47 106 110 122 256 258 51 338 253 280 284 251 241 251 247 242 240 235
335 334 335 337 336 342 343 359 48 148 322 21 13 10 5 4 6 12 18 87 76 71 341 24 67 137 128 61 82 59 85 295 285 48 14 339 289 270 266 237 242 254 249 245 241
344 340 338 339 339 345 9 37 20 352 275 337 38 20 9 6 47 3 35 78 71 62 14 131 161 157 122 52 71 58 98 11 258 321 164 312 287 304 286 256 262 259 258 248 236
355 355 349 343 345 350 6 6 355 345 66 282 278 355 318 85 44 27 48 80 47 131 89 83 280 145 86 89 46 261 81 72 354 16 286 9 284 308 327 297 271 269 252 231 210
349 352 355 359 347 355 345 351 349 3 12 288 324 325 14 103 138 24 39 73 102 116 120 200 140 104 129 127 27 174 85 81 52 70 12 312 91 266 342 294 253 237 227 206 198
335 342 345 350 350 347 343 339 343 42 258 324 300 348 40 30 31 9 53 71 99 94 47 73 31 27 68 59 40 133 81 50 51 66 1 167 146 281 231 231 299 269 217 208 206
314 322 328 333 333 338 343 344 32 141 359 288 281 21 65 20 15 28 23 72 155 77 312 2 213 165 122 115 38 103 60 328 347 7 226 30 3 249 293 261 246 320 242 220 217
294 301 304 310 315 323 336 48 105 242 229 148 153 100 173 14 188 95 105 295 207 86 94 157 310 168 175 225 169 166 166 159 228 254 273 50 230 247 207 264 241 247 249 249 225
283 285 286 290 286 294 323 59 210 203 167 155 89 73 306 345 158 78 204 209 200 166 165 119 297 3 23 357 32 173 185 161 102 54 38 239 286 293 246 259 248 251 250 237 226
268 273 272 271 263 237 101 228 230 201 141 157 180 164 208 250 151 175 173 208 170 159 178 197 45 8 4 16 35 236 157 69 4 241 274 274 275 244 286 273 311 248 237 236 233
254 248 244 234 210 182 192 221 233 224 187 169 215 172 208 190 184 215 230 288 172 148 131 143 114 272 46 194 183 82 325 36 133 157 205 293 255 215 230 241 255 268 255 246 248
225 227 210 208 175 214 179 191 190 184 198 231 241 211 194 168 179 233 222 224 176 161 163 202 141 175 211 144 90 160 214 177 139 248 257 79 268 332 251 276 280 278 277 272 271
227 219 199 189 212 212 225 246 213 156 188 184 218 205 179 185 220 198 210 182 174 171 162 191 253 37 340 1 6 197 199 180 113 114 202 156 258 269 292 275 270 262 279 279 280
220 229 180 197 234 209 165 223 217 212 188 178 167 129 145 222 234 217 225 182 193 199 165 143 141 175 191 195 127 188 213 187 147 142 192 226 272 271 280 266 271 276 280 286 284
231 228 200 196 230 213 186 185 207 204 216 195 201 198 172 207 180 214 205 143 176 206 167 143 202 164 277 150 150 193 184 182 201 217 199 265 234 266 265 277 275 291 293 289 289
252 224 204 241 229 199 206 225 224 209 156 226 223 187 191 217 181 201 167 186 192 160 166 201 224 112 290 182 198 257 217 186 215 229 253 259 273 263 272 284 277 277 280 279 286
254 253 238 246 193 200 217 223 222 200 219 229 205 181 212 223 213 223 194 184 164 159 178 155 134 112 259 29 159 286 202 200 199 191 217 238 243 272 284 264 276 286 288 284 287
Wind_Speed_850mb
19 18 17 20 21 18 14 22 25 18 21 15 25 24 13 23 28 14 10 13 11 13 14 7 20 26 22 10 9 8 8 5 12 13 7 2 3 4 5 5 4 5 6 5 3
17 16 18 20 22 21 17 21 24 22 23 16 25 7 21 15 17 28 21 9 7 13 12 18 28 27 13 8 7 8 7 12 3 4 6 4 4 3 4 3 7 8 10 7 5
16 17 19 21 22 23 23 21 23 24 21 18 13 16 13 9 6 20 19 5 2 8 12 17 18 15 11 9 9 6 6 9 5 4 3 3 1 2 6 9 20 20 15 11 7
16 19 19 20 22 25 26 25 23 23 21 20 16 13 19 9 3 20 19 5 5 1 6 11 8 7 9 7 6 11 8 6 8 3 4 4 3 7 23 8 12 16 14 13 7
15 17 19 21 21 22 24 23 23 22 19 16 19 12 6 8 11 16 19 3 8 5 6 8 6 8 9 8 6 8 8 11 11 5 3 6 12 13 27 29 19 17 18 16 14
13 15 17 19 20 21 22 21 20 20 17 12 12 19 7 7 12 14 17 11 6 7 7 9 8 16 18 9 8 6 12 11 4 7 3 5 7 8 8 37 32 25 22 21 20
17 19 19 20 21 22 22 22 19 16 15 12 9 10 10 6 10 10 14 15 15 14 16 22 17 5 13 9 12 13 8 4 4 8 1 10 12 19 24 29 37 32 27 25 22
21 21 21 21 22 23 23 23 20 15 15 10 8 5 5 5 7 8 7 14 19 18 21 19 21 19 10 24 11 8 9 1 1 16 1 5 17 5 13 29 42 39 35 31 26
25 25 25 24 22 23 23 22 16 11 9 8 5 2 4 2 7 10 4 6 11 10 13 12 5 12 10 8 7 12 4 2 6 6 6 5 15 7 8 27 41 48 46 41 34
25 26 26 26 25 22 22 20 12 9 10 6 3 3 3 7 11 11 4 5 4 4 1 2 8 7 8 8 7 6 4 6 9 7 6 8 32 24 37 32 52 57 55 53 46
26 26 26 27 27 22 19 11 7 5 6 6 5 3 5 9 4 12 3 2 4 2 6 10 11 4 4 2 5 9 4 3 5 3 8 6 17 45 28 45 57 69 73 71 63
26 26 28 27 25 20 17 5 8 3 5 5 4 3 5 9 1 16 7 1 5 4 9 9 6 4 3 3 7 8 3 6 8 3 4 10 32 43 19 21 46 56 61 75 74
29 30 28 28 22 18 17 14 9 8 2 3 3 2 2 4 5 13 9 6 12 9 10 8 4 3 4 6 4 5 2 1 6 14 1 15 16 13 4 12 20 28 34 40 60
28 29 29 28 11 21 12 17 13 10 9 7 2 2 3 2 5 12 9 6 10 8 6 9 2 3 5 6 2 2 3 2 5 11 7 10 11 17 7 17 11 21 21 24 36
26 28 27 25 21 16 15 16 13 5 7 1 3 3 5 3 1 7 12 6 9 8 5 4 3 2 3 4 1 4 2 4 4 5 6 1 4 17 8 12 12 17 18 23 32
26 27 27 24 18 18 20 17 8 12 12 7 5 5 2 8 6 5 5 10 12 8 10 6 3 4 3 7 6 8 5 8 7 5 4 2 7 13 8 8 7 3 18 21 30
26 28 27 26 20 19 16 11 10 8 6 9 3 6 5 5 7 10 6 3 7 9 2 5 3 1 4 6 2 4 7 6 10 6 9 2 2 23 11 10 6 4 5 18 27
33 29 31 28 24 17 13 10 6 4 11 1 4 3 5 2 2 2 4 4 5 9 7 10 11 9 2 3 9 7 8 9 11 5 9 1 13 13 14 6 19 28 19 13 22
45 40 38 32 22 13 4 6 15 14 9 14 2 6 9 5 3 2 9 10 13 14 15 8 6 5 9 8 4 6 5 2 11 6 6 8 15 23 13 20 29 43 26 32 30
52 46 49 40 33 16 6 12 10 8 11 4 13 8 9 7 4 6 5 9 11 6 6 11 3 4 3 2 4 3 5 8 6 2 9 9 9 13 6 3 1 11 40 40 34
52 17 26 26 25 15 8 16 12 18 17 12 13 8 11 13 12 8 9 8 8 9 6 9 7 2 5 9 11 2 4 7 3 7 9 4 11 15 13 8 14 17 23 30 34
50 8 26 36 14 5 10 17 15 13 20 11 4 11 17 14 11 5 16 11 21 24 16 11 10 8 15 2 1 3 7 12 8 10 3 1 16 7 12 15 21 31 26 25 26
21 26 35 53 14 7 5 10 18 13 14 15 15 14 7 16 2 14 11 7 31 18 15 15 3 3 12 7 8 7 10 7 7 5 13 8 13 7 5 15 21 33 27 30 38
19 6 14 47 25 14 13 13 16 30 13 19 11 11 7 11 11 10 10 6 24 16 11 17 5 14 15 11 11 7 10 11 10 7 8 19 36 26 42 33 33 48 57 60 57
32 14 20 10 15 17 20 22 29 18 15 28 7 16 18 13 9 11 9 6 6 13 10 10 13 7 5 5 7 10 11 17 22 25 18 35 24 34 45 37 28 47 59 60 70
18 17 12 6 9 41 38 38 48 31 23 16 19 30 23 32 20 24 17 11 13 8 14 2 6 7 8 1 11 12 18 23 36 27 32 45 57 56 84 75 65 53 53 58 65
45 61 52 39 16 16 31 44 41 35 35 47 40 19 27 52 41 19 27 22 18 24 22 14 12 7 12 2 3 19 21 41 19 15 31 33 56 48 47 30 37 46 56 66 73
Wind_Direction_850mb
52 50 44 27 19 20 12 15 10 12 0 332 292 259 337 12 26 14 358 1 3 16 14 87 142 148 145 116 110 120 69 156 179 160 179 106 91 50 79 180 196 194 186 190 139
35 33 24 16 16 11 6 356 356 5 3 5 19 246 265 304 4 23 12 4 29 15 54 101 125 135 105 91 47 78 105 195 146 129 140 121 164 188 154 192 234 204 192 190 162
25 19 15 8 6 5 0 0 355 357 357 3 2 13 327 266 358 4 354 318 346 20 93 120 128 117 83 78 33 51 126 169 162 151 136 127 186 249 169 221 216 212 190 189 205
10 10 5 2 2 360 358 356 356 353 351 359 357 354 34 28 83 354 352 291 217 58 134 134 140 88 76 87 71 89 108 115 150 152 145 180 244 236 212 218 188 195 194 205 214
1 0 354 353 356 355 354 353 351 350 342 356 3 1 12 41 21 2 3 347 209 184 203 197 149 105 97 93 77 83 144 118 116 114 223 264 244 250 243 219 206 196 208 217 231
344 345 343 342 345 344 346 349 349 353 345 339 18 29 15 72 3 11 25 51 142 161 176 173 156 114 100 72 66 84 107 116 78 33 289 308 276 328 267 209 206 208 215 222 232
337 336 336 336 335 335 340 340 344 346 340 335 332 341 25 69 26 26 43 68 85 90 116 120 110 114 112 90 98 105 76 23 32 349 352 326 268 233 235 196 202 212 217 224 231
336 334 333 330 332 331 335 335 332 317 330 334 348 39 72 57 48 32 61 83 90 89 95 103 100 99 63 116 52 63 61 53 335 356 336 27 268 219 212 200 211 219 224 229 231
338 335 331 331 330 328 331 330 329 321 322 337 328 143 121 9 28 34 78 108 107 95 96 95 93 87 97 90 44 9 184 223 305 58 302 175 269 263 222 217 229 228 230 235 235
334 334 334 331 326 327 327 328 314 307 308 274 318 108 72 326 357 8 19 140 153 156 107 106 79 76 36 62 218 215 208 229 250 341 345 264 270 260 247 235 239 238 237 237 236
333 333 333 333 333 334 331 323 299 279 11 64 42 81 341 339 28 357 328 53 123 83 33 20 69 82 111 47 106 110 122 256 258 51 338 253 280 284 251 241 251 247 242 240 235
335 334 335 337 336 342 343 359 48 148 322 21 13 10 5 4 6 12 18 87 76 71 341 24 67 137 128 61 82 59 85 295 285 48 14 339 289 270 266 237 242 254 249 245 241
344 340 338 339 339 345 9 37 20 352 275 337 38 20 9 6 47 3 35 78 71 62 14 131 161 157 122 52 71 58 98 11 258 321 164 312 287 304 286 256 262 259 258 248 236
355 355 349 343 345 350 6 6 355 345 66 282 278 355 318 85 44 27 48 80 47 131 89 83 280 145 86 89 46 261 81 72 354 16 286 9 284 308 327 297 271 269 252 231 210
349 352 355 359 347 355 345 351 349 3 12 288 324 325 14 103 138 24 39 73 102 116 120 200 140 104 129 127 27 174 85 81 52 70 12 312 91 266 342 294 253 237 227 206 198
335 342 345 350 350 347 343 339 343 42 258 324 300 348 40 30 31 9 53 71 99 94 47 73 31 27 68 59 40 133 81 50 51 66 1 167 146 281 231 231 299 269 217 208 206
314 322 328 333 333 338 343 344 32 141 359 288 281 21 65 20 15 28 23 72 155 77 312 2 213 165 122 115 38 103 60 328 347 7 226 30 3 249 293 261 246 320 242 220 217
294 301 304 310 315 323 336 48 105 242 229 148 153 100 173 14 188 95 105 295 207 86 94 157 310 168 175 225 169 166 166 159 228 254 273 50 230 247 207 264 241 247 249 249 225
283 285 286 290 286 294 323 59 210 203 167 155 89 73 306 345 158 78 204 209 200 166 165 119 297 3 23 357 32 173 185 161 102 54 38 239 286 293 246 259 248 251 250 237 226
268 273 272 271 263 237 101 228 230 201 141 157 180 164 208 250 151 175 173 208 170 159 178 197 45 8 4 16 35 236 157 69 4 241 274 274 275 244 286 273 311 248 237 236 233
254 248 244 234 210 182 192 221 233 224 187 169 215 172 208 190 184 215 230 288 172 148 131 143 114 272 46 194 183 82 325 36 133 157 205 293 255 215 230 241 255 268 255 246 248
225 227 210 208 175 214 179 191 190 184 198 231 241 211 194 168 179 233 222 224 176 161 163 202 141 175 211 144 90 160 214 177 139 248 257 79 268 332 251 276 280 278 277 272 271
227 219 199 189 212 212 225 246 213 156 188 184 218 205 179 185 220 198 210 182 174 171 162 191 253 37 340 1 6 197 199 180 113 114 202 156 258 269 292 275 270 262 279 279 280
220 229 180 197 234 209 165 223 217 212 188 178 167 129 145 222 234 217 225 182 193 199 165 143 141 175 191 195 127 188 213 187 147 142 192 226 272 271 280 266 271 276 280 286 284
231 228 200 196 230 213 186 185 207 204 216 195 201 198 172 207 180 214 205 143 176 206 167 143 202 164 277 150 150 193 184 182 201 217 199 265 234 266 265 277 275 291 293 289 289
252 224 204 241 229 199 206 225 224 209 156 226 223 187 191 217 181 201 167 186 192 160 166 201 224 112 290 182 198 257 217 186 215 229 253 259 273 263 272 284 277 277 280 279 286
254 253 238 246 193 200 217 223 222 200 219 229 205 181 212 223 213 223 194 184 164 159 178 155 134 112 259 29 159 286 202 200 199 191 217 238 243 272 284 264 276 286 288 284 287